#timestamp,LO_Frequency,Hit,StdDev 
1603389615.6,286047003.5,N
1603389635.5,286047002.4,N
1603389655.3,286046998.1,N
1603389675.1,286046995.7,N
1603389695.9,286046992.1,N
1603389715.7,286046993.1,N
1603389735.6,286046994.8,N
1603389755.4,286046995.8,N
1603389775.2,286046991.8,N
1603389795.1,286046992.7,N
1603389796.0,286046992.7,N
1603389815.8,286046989.8,N
1603389835.6,286046989.3,N
1603389855.5,286046985.8,N
1603389875.3,286046987.5,N
1603389895.2,286046987.4,N
1603389915.9,286046987.2,N
1603389935.7,286046987.8,N
1603389955.6,286046988.1,N
1603389975.4,286046989.5,N
1603389995.3,286046992.3,N
1603390015.1,286046991.7,N
1603390016.0,286046991.7,N
1603390035.8,286046995.5,N
1603390055.7,286046999.4,N
1603390075.5,286047001.9,N
1603390095.4,286046998.6,N
1603390115.2,286046999.4,N
1603390135.0,286047000.7,N
1603390135.9,286047000.7,N
1603390155.8,286047004.0,N
1603390175.6,286047005.9,N
1603390195.4,286047008.8,N
1603390215.3,286047008.3,N
1603390235.1,286047008.9,N
1603390255.9,286047009.1,N
1603390275.7,286047009.1,N
1603390295.5,286047008.9,N
1603390315.4,286047004.8,N
1603390335.2,286047007.3,N
1603390355.1,286047009.1,N
1603390356.0,286047009.1,N
1603390375.8,286047011.9,N
1603390395.6,286047007.8,N
1603390415.5,286047010.5,N
1603390435.3,286047006.1,N
1603390455.2,286047007.7,N
1603390475.9,286047007.2,N
1603390495.7,286047005.0,N
1603390515.6,286047006.2,N
1603390535.4,286047008.7,N
1603390555.3,286047006.5,N
1603390575.1,286047008.8,N
1603390576.0,286047008.8,N
1603390595.8,286047003.5,N
1603390615.7,286047005.2,N
1603390635.5,286047003.2,N
1603390655.3,286047004.7,N
1603390675.2,286047006.8,N
1603390695.0,286047001.9,N
1603390695.9,286047001.9,N
1603390745.8,286047001.0,E
1603390755.7,286046998.1,N
1603390775.6,286047000.8,P
1603390795.4,286046998.1,N
1603390815.2,286047000.1,N
1603390835.1,286046998.2,N
1603390836.0,286046998.2,N
1603390855.8,286046998.9,N
1603390875.7,286046999.5,N
1603390895.5,286046999.0,N
1603390915.3,286046997.3,N
1603390935.2,286046995.3,Y
1603390955.0,286046995.6,P
1603390955.9,286046995.6,N
1603390975.8,286046993.9,P
1603390995.6,286046990.1,Y
1603391015.4,286046993.8,P
1603391035.3,286046994.5,P
1603391055.1,286046994.1,P
1603391075.9,286046993.2,Y
1603391095.7,286046996.4,P
1603391115.5,286046994.1,P
1603391135.4,286046994.6,P
1603391155.2,286046995.8,Y
1603391175.1,286047002.6,P
1603391176.0,286047002.6,N
1603391195.8,286046998.4,N
1603391215.6,286046998.2,N
1603391235.5,286047002.4,N
1603391255.3,286047000.3,N
1603391275.1,286047000.6,N
1603391295.9,286047000.9,N
1603391315.7,286047002.3,N
1603391335.6,286047000.1,N
1603391355.4,286047001.8,N
1603391375.2,286047004.0,N
1603391395.1,286047003.1,N
1603391396.0,286047003.1,N
1603391415.8,286047005.8,N
1603391435.6,286047005.0,N
1603391455.5,286047006.8,N
1603391475.3,286047007.6,N
1603391495.2,286047005.7,N
1603391515.9,286047005.6,N
1603391535.7,286047004.7,N
1603391555.6,286047007.4,N
1603391575.4,286047009.0,N
1603391595.2,286047007.4,N
1603391615.1,286047006.4,N
1603391616.0,286047006.4,N
1603391635.8,286047005.9,N
1603391655.7,286047004.0,N
1603391675.5,286047003.3,N
1603391695.3,286047010.2,Y
1603391715.2,286047006.7,P
1603391735.0,286047006.1,P
1603391735.9,286047006.1,P
1603391755.8,286047007.1,Y
1603391775.6,286047001.3,P
1603391795.4,286047002.7,N
1603391815.3,286046998.3,N
1603391835.1,286047001.1,N
1603391855.9,286047000.6,N
1603391875.7,286047000.6,N
1603391895.5,286047000.1,N
1603391915.4,286047000.6,N
1603391935.2,286046998.2,N
1603391955.0,286046998.2,N
1603391955.9,286046998.2,N
1603391975.8,286047001.3,N
1603391995.6,286047005.0,N
1603392015.5,286047007.8,Y
1603392035.3,286047007.4,P
1603392055.1,286047007.6,N
1603392075.9,286047007.5,N
1603392095.7,286047007.2,N
1603392115.5,286047005.2,N
1603392135.4,286047005.4,N
1603392155.2,286047003.5,N
1603392175.1,286047004.4,N
1603392176.0,286047004.4,N
1603392195.8,286047004.1,N
1603392215.6,286047001.7,N
1603392235.5,286047003.5,N
1603392255.3,286047004.8,N
1603392275.2,286047004.6,N
1603392295.9,286047006.3,Y
1603392315.7,286047004.2,P
1603392335.6,286047003.6,P
1603392355.4,286047001.5,N
1603392375.3,286047004.0,Y
1603392395.1,286046998.1,P
1603392396.0,286046998.1,N
1603392415.8,286047000.3,N
1603392435.7,286047001.0,N
1603392485.5,286047004.4,E
1603392495.5,286047000.2,N
1603392515.3,286046998.5,P
1603392535.1,286047001.2,N
1603392555.9,286046999.3,N
1603392575.7,286046998.4,N
1603392595.6,286047001.1,N
1603392615.4,286046998.9,N
1603392635.2,286046998.9,N
1603392655.1,286046999.4,N
1603392656.0,286046999.4,N
1603392675.8,286047000.4,N
1603392695.6,286047001.2,N
1603392715.5,286047001.6,N
1603392735.3,286047004.4,Y
1603392755.2,286047000.3,P
1603392775.9,286047000.8,P
1603392795.7,286046998.2,P
1603392815.6,286047002.7,N
1603392835.4,286047001.5,N
1603392855.3,286047005.3,Y
1603392875.1,286047001.3,P
1603392876.0,286047001.3,P
1603392895.8,286047002.4,P
1603392915.7,286047002.7,Y
1603392935.5,286047000.8,P
1603392955.4,286046998.6,P
1603392975.2,286047001.1,N
1603392995.0,286047000.0,N
1603392995.9,286047000.0,N
1603393015.8,286047002.5,N
1603393035.6,286047005.5,Y
1603393055.4,286047001.7,P
1603393075.3,286047000.2,N
1603393095.1,286047002.3,P
1603393115.9,286047004.1,Y
1603393135.7,286047004.0,P
1603393155.5,286047003.7,N
1603393175.4,286047001.3,N
1603393195.2,286047002.3,N
